KO4RMV-3 Weather Reports


time (UTC)temp
F
wind
direction
speed
knots
gust
knots
rain 1hr
in
rain 24hr
in
rain mn
in
humidity
%
barometer
mb
20260507161505 56 64 0.0 3.5 0.00 0.00 0.00 76 0.9
20260507160005 56 65 0.0 2.6 0.00 0.00 0.00 76 0.9
20260507154505 56 0.0 0.0 0.00 0.00 0.00 75 0.9
20260507153005 57 90 0.0 2.6 0.00 0.00 0.00 75 0.9
20260507151505 57 0.0 1.7 0.00 0.00 0.00 73 0.9
20260507150006 57 68 0.0 4.3 0.00 0.00 0.00 72 0.9
20260507144505 58 292 0.0 2.6 0.00 0.00 0.00 72 0.9
20260507143005 58 37 0.0 2.6 0.00 0.00 0.00 72 0.9
20260507141505 58 135 0.0 2.6 0.00 0.00 0.00 73 0.9
20260507140006 58 201 0.0 2.6 0.00 0.00 0.00 74 0.9
20260507134505 58 2 0.0 2.6 0.00 0.00 0.00 75 0.9
20260507133006 58 0.0 0.0 0.00 0.00 0.00 75 0.9
20260507131506 58 125 0.0 5.2 0.00 0.00 0.00 76 0.9
20260507130006 59 158 0.0 2.6 0.00 0.00 0.00 79 0.9
20260507124506 58 0.0 0.0 0.00 0.00 0.00 81 0.9
20260507123005 58 0.0 0.0 0.00 0.00 0.00 83 0.9
20260507121505 58 0.0 0.0 0.00 0.00 0.00 83 0.9
20260507120006 57 0.0 1.7 0.00 0.00 0.00 82 0.9
20260507114505 57 0.0 0.0 0.00 0.00 0.00 81 0.9
20260507113006 57 0.0 0.0 0.00 0.00 0.00 82 0.9
20260507111506 57 0.0 0.0 0.00 0.00 0.00 83 0.9
20260507110005 57 0.0 0.0 0.00 0.00 0.00 83 0.9
20260507104506 57 0.0 0.0 0.00 0.00 0.00 84 0.9
20260507103005 57 0.0 0.0 0.00 0.00 0.00 84 0.9
20260507101507 57 0.0 0.0 0.00 0.00 0.00 86 0.9
20260507100005 57 0.0 0.0 0.00 0.00 0.00 86 0.9
20260507094505 58 0.0 0.0 0.00 0.00 0.00 86 0.9
20260507093005 58 0.0 0.0 0.04 0.00 0.00 86 0.9
20260507091505 59 0.0 0.0 0.00 0.00 0.00 86 0.9
20260507090006 59 0.0 0.0 0.00 0.00 0.00 85 0.9
20260507084506 60 0.0 0.0 0.00 0.00 0.00 84 0.9
20260507083006 62 248 0.0 0.9 0.00 0.00 0.00 82 0.9
20260507081506 63 0.0 0.0 0.00 0.00 0.00 82 0.9
20260507080006 65 0.0 0.0 0.00 0.00 0.00 83 0.9
20260507074505 67 0.0 0.0 0.00 0.00 0.00 87 0.9
20260507073005 67 0.0 0.0 0.00 0.00 0.00 87 0.9
20260507071505 67 0.0 0.0 0.00 0.00 0.00 86 0.9
20260507070009 68 0.0 0.0 0.00 0.00 0.00 85 0.9
20260507064505 69 0.0 0.0 0.00 0.00 0.00 83 0.9
20260507063005 69 270 0.0 2.6 0.00 0.00 0.00 81 0.9
20260507061505 69 180 0.0 1.7 0.00 0.00 0.00 81 0.9
20260507060005 69 0.0 0.0 0.00 0.00 0.00 81 0.9
20260507054505 69 214 0.0 1.7 0.00 0.00 0.00 81 0.9
20260507053005 69 158 0.0 1.7 0.00 0.00 0.00 81 0.9
20260507051505 69 0.0 0.0 0.00 0.00 0.00 81 0.9
20260507050005 69 180 0.0 1.7 0.00 0.00 0.00 81 0.9
20260507044506 69 0.0 0.0 0.00 0.00 0.00 81 0.9
20260507043006 69 270 0.0 2.6 0.00 0.00 0.00 81 0.9
20260507041506 69 190 0.0 1.7 0.00 0.00 0.00 81 0.9
20260507040006 69 0.0 0.0 0.00 0.00 0.00 82 0.9
20260507034506 68 0.0 0.0 0.00 0.00 0.00 83 0.9
20260507033005 68 0.0 0.0 0.00 0.00 0.00 83 0.9
20260507031505 68 0.0 0.0 0.00 0.00 0.00 83 0.9
20260507030005 68 0.0 0.0 0.00 0.00 0.00 83 0.9
20260507024505 68 0.0 0.0 0.00 0.00 0.00 82 0.9
20260507023005 68 0.0 0.0 0.00 0.00 0.00 82 0.9
20260507021505 68 0.0 0.0 0.00 0.00 0.00 81 0.9
20260507020005 68 0.0 0.0 0.00 0.00 0.00 81 0.9
20260507014505 68 0.0 0.0 0.00 0.00 0.00 81 0.9
20260507013005 68 0.0 0.0 0.00 0.00 0.00 81 0.9
20260507011505 68 0.0 0.0 0.00 0.00 0.00 80 0.9
20260507010005 69 0.0 0.0 0.00 0.00 0.00 79 0.9
20260507004505 69 0.0 0.0 0.00 0.00 0.00 78 0.9
20260507003005 69 0.0 0.0 0.00 0.00 0.00 77 0.9
20260507001506 70 0.0 0.0 0.00 0.00 0.00 77 0.9
20260507000006 70 0.0 0.0 0.00 0.00 0.00 75 0.9
20260506234506 70 0.0 0.0 0.00 0.00 0.00 75 0.9
20260506233006 71 0.0 0.0 0.00 0.00 0.00 74 0.9
20260506231505 71 230 0.0 2.6 0.00 0.00 0.00 73 0.9
20260506230005 71 0.0 0.0 0.00 0.00 0.00 73 0.9
20260506224505 71 90 0.0 1.7 0.00 0.00 0.00 72 0.9
20260506223005 72 248 0.0 1.7 0.00 0.00 0.00 71 0.9
20260506221505 72 248 0.0 3.5 0.00 0.00 0.00 71 0.9
20260506220005 72 236 0.0 3.5 0.00 0.00 0.00 71 0.9
20260506214505 72 212 0.0 1.7 0.00 0.00 0.00 72 0.9
20260506213005 72 189 0.0 2.6 0.00 0.00 0.00 73 0.9
20260506211505 72 245 0.0 2.6 0.00 0.00 0.00 73 0.9
20260506210005 72 0.0 0.0 0.00 0.00 0.00 75 0.9
20260506204505 71 229 0.0 1.7 0.00 0.00 0.00 76 0.9
20260506203005 70 0.0 0.0 0.00 0.00 0.00 78 0.9
20260506201505 69 0.0 0.0 0.00 0.00 0.00 78 0.9
20260506200006 69 0.0 0.0 0.00 0.00 0.00 81 0.9
20260506194506 68 0.0 0.0 0.00 0.00 0.00 81 0.9
20260506193006 68 188 0.0 3.5 0.00 0.00 0.00 82 0.9
20260506191506 67 0.0 0.0 0.00 0.00 0.00 83 0.9
20260506190006 66 270 0.0 0.9 0.00 0.00 0.00 85 0.9
20260506184505 66 204 0.0 2.6 0.00 0.00 0.00 84 0.9
20260506183006 67 0.0 0.0 0.00 0.00 0.00 82 0.9
20260506181505 67 0.0 0.9 0.00 0.00 0.00 82 0.9
20260506180006 66 112 0.0 1.7 0.00 0.00 0.00 84 0.9
20260506174505 66 263 0.0 3.5 0.00 0.00 0.00 84 0.9
20260506173005 65 225 0.0 1.7 0.00 0.00 0.00 86 0.9
20260506171505 65 206 0.0 3.5 0.00 0.00 0.00 86 0.9
20260506170005 65 0.0 0.0 0.00 0.00 0.00 86 0.9
20260506164505 65 0.0 0.0 0.00 0.00 0.00 88 0.9
20260506163005 64 210 0.0 2.6 0.00 0.00 0.00 89 0.9